Regional Weather Roundup
Issued by NWS

Home | Current Version | Previous Version | Text Only | Print | Product List | Glossary On
Versions: 1 2 3 4 5 6 7 8 9 10 11 12 13 14 15 16 17 18 19 20 21 22 23 24 25 26 27 28 29 30 31 32 33 34 35 36 37 38 39 40 41 42 43 44 45 46 47 48 49 50
145
ASUS43 KTOP 261008
RWRKS

WEATHER ROUNDUP FOR KANSAS
NATIONAL WEATHER SERVICE GOODLAND KS
500 AM CDT MON SEP 26 2016

NOTE:  "FAIR" INDICATES FEW OR NO CLOUDS BELOW 12,000 FEET WITH NO
SIGNIFICANT WEATHER AND/OR OBSTRUCTIONS TO VISIBILITY.

KSZ001>006-013>018-027>032-041>047-261100-
NORTHWEST KANSAS

CITY           SKY/WX    TMP DP  RH WIND       PRES   REMARKS
GOODLAND       CLEAR     42  34  73 SW8       30.38S
HAYS           CLEAR     43  28  56 NW7       30.34S
HILL CITY      CLEAR     40  34  79 W5        30.36S
RUSSELL        CLEAR     46  36  68 NW7       30.32S
$$

KSZ061>065-074>080-084>089-261100-
SOUTHWEST KANSAS

CITY           SKY/WX    TMP DP  RH WIND       PRES   REMARKS
DODGE CITY     CLEAR     41  33  73 NW6       30.36R
ELKHART          N/A     46  30  53 W7          N/A
GARDEN CITY    CLEAR     43  30  60 N10       30.36S
GREAT BEND     CLEAR     45  34  65 NW6       30.34S
LIBERAL        CLEAR     43  30  61 NW6       30.37S
PRATT          CLEAR     43  38  82 NW6       30.33S HAZE
$$

KSZ066>073-081>083-090>101-261100-
SOUTHEAST KANSAS

CITY           SKY/WX    TMP DP  RH WIND       PRES   REMARKS
CHANUTE        CLEAR     54  50  86 N7        30.24S
COFFEYVILLE    CLEAR     57  55  93 N9        30.22S
HUTCHINSON     CLEAR     47  41  80 NW6       30.31R
MEDICINE LODGE   N/A     46  42  86 N5          N/A
NEWTON         CLEAR    N/A N/A N/A N7        30.30S
PARSONS        CLEAR     55  52  89 N7        30.24S
WICHITA INTL   PTCLDY    52  46  80 N10       30.29R
WICHITA JABRA  CLEAR     49  44  83 N8        30.28S
WICHITA MCCONL CLEAR     50  44  79 N6        30.28S
WINFIELD       CLEAR     49  47  93 N6        30.28S
$$

KSZ007>012-019>026-033>040-048>060-102>105-261100-
NORTHEAST KANSAS

CITY           SKY/WX    TMP DP  RH WIND       PRES   REMARKS
CONCORDIA      CLEAR     47  40  76 W9        30.30R
EMPORIA        CLEAR     50  45  83 NW6       30.27S
LAWRENCE       CLEAR     49  47  93 W8        30.25S
MANHATTAN      CLEAR     46  42  86 W6        30.28R
MARYSVILLE     CLEAR     45  39  81 CALM      30.27S
OLATHE IND     CLEAR     52  48  86 NW5       30.25R
OLATHE EXE     CLEAR     53  47  79 NW3       30.24R
SALINA         CLEAR     49  41  74 CALM      30.31R HAZE
TOPEKA BILLARD CLEAR     50  44  80 W3        30.25S
TOPEKA FORBES  HAZE      50  44  80 NW3       30.26S VSB 1
$$




USA.gov is the U.S. government's official web portal to all federal, state and local government web resources and services.